KB1JDX Weather Reports


Display with metric or nautical units.
time (UTC)temp
F
wind
direction
speed
MPH
gust
MPH
rain 1hr
in
rain 24hr
in
rain mn
in
humidity
%
barometer
mb
20181218214520 28 310 5.0 11.0 0.00 0.00 0.00 55 1016.1
20181218212520 28 324 2.0 11.0 0.00 0.00 0.00 55 1015.5
20181218211757 29 324 1.0 11.0 0.00 0.00 0.00 54 1015.2
20181218210520 29 300 5.0 11.0 0.00 0.00 0.00 53 1015.3
20181218204520 30 311 4.0 15.0 0.00 0.00 0.00 52 1015.0
20181218202519 31 300 6.0 15.0 0.00 0.00 0.00 51 1014.6
20181218201755 31 298 6.0 15.0 0.00 0.00 0.00 50 1014.6
20181218200520 31 286 5.0 15.0 0.00 0.00 0.00 51 1014.4
20181218194520 31 300 6.0 22.0 0.00 0.00 0.00 50 1014.1
20181218192520 31 317 9.0 21.0 0.00 0.00 0.00 50 1014.1
20181218191757 31 296 8.0 21.0 0.00 0.00 0.00 50 1013.9
20181218190520 31 317 6.0 14.0 0.00 0.00 0.00 51 1013.5
20181218184520 31 307 13.0 14.0 0.00 0.00 0.00 50 1013.1
20181218182520 31 325 7.0 14.0 0.00 0.00 0.00 51 1012.9
20181218181757 30 309 5.0 14.0 0.00 0.00 0.00 51 1012.8
20181218174520 30 13 6.0 15.0 0.00 0.00 0.00 51 1012.5
20181218172520 29 298 8.0 15.0 0.00 0.00 0.00 52 1012.6
20181218171757 29 307 9.0 15.0 0.00 0.00 0.00 52 1012.6
20181218170520 29 293 6.0 18.0 0.00 0.00 0.00 53 1012.6
20181218164520 28 321 6.0 21.0 0.00 0.00 0.00 54 1012.9
20181218162521 27 342 7.0 21.0 0.00 0.00 0.00 54 1012.7
20181218161756 27 342 5.0 21.0 0.00 0.00 0.00 54 1012.4
20181218160521 27 298 7.0 21.0 0.00 0.00 0.00 55 1012.7
20181218154520 26 317 14.0 19.0 0.00 0.00 0.00 55 1012.6
20181218152520 26 319 5.0 20.0 0.00 0.00 0.00 55 1012.8
20181218151758 26 298 7.0 20.0 0.00 0.00 0.00 56 1012.7
20181218150522 26 309 16.0 20.0 0.00 0.00 0.00 55 1012.5
20181218144519 25 304 5.0 32.0 0.00 0.00 0.00 56 1012.3
20181218142518 25 275 2.0 32.0 0.00 0.00 0.00 57 1012.3
20181218141755 25 314 6.0 32.0 0.00 0.00 0.00 57 1012.3
20181218140519 25 337 6.0 23.0 0.00 0.00 0.00 57 1012.1
20181218134518 24 294 10.0 22.0 0.00 0.00 0.00 57 1011.5
20181218132519 24 293 6.0 22.0 0.00 0.00 0.00 59 1011.3
20181218131755 24 319 6.0 22.0 0.00 0.00 0.00 59 1011.1
20181218130518 24 310 11.0 23.0 0.00 0.00 0.00 59 1010.7
20181218124519 23 338 6.0 19.0 0.00 0.00 0.00 61 1010.4
20181218122520 23 304 8.0 19.0 0.00 0.00 0.00 59 1010.2
20181218121755 24 309 8.0 19.0 0.00 0.00 0.00 58 1010.2
20181218120517 24 300 6.0 20.0 0.00 0.00 0.00 58 1009.9
20181218114519 24 85 4.0 21.0 0.00 0.00 0.00 58 1009.7
20181218111755 24 341 6.0 21.0 0.00 0.00 0.00 59 1009.1
20181218110519 24 344 7.0 20.0 0.00 0.00 0.00 59 1009.1
20181218104519 25 321 9.0 21.0 0.00 0.00 0.00 56 1008.5
20181218102519 25 331 6.0 21.0 0.00 0.00 0.00 57 1008.1
20181218101755 25 296 8.0 21.0 0.00 0.00 0.00 57 1007.7
20181218100519 26 302 6.0 23.0 0.00 0.00 0.00 57 1007.6
20181218094519 26 315 8.0 20.0 0.00 0.00 0.00 56 1007.1
20181218092519 27 283 11.0 20.0 0.00 0.00 0.00 56 1006.7
20181218091754 27 290 9.0 20.0 0.00 0.00 0.00 57 1006.7
20181218090519 28 304 7.0 20.0 0.00 0.00 0.00 58 1006.6
20181218084518 29 309 12.0 22.0 0.00 0.01 0.00 57 1006.4
20181218082519 30 300 7.0 22.0 0.00 0.01 0.00 60 1005.8
20181218081756 30 336 7.0 22.0 0.00 0.01 0.00 63 1005.5
20181218080521 31 229 2.0 22.0 0.00 0.01 0.00 67 1005.4
20181218074519 32 302 8.0 19.0 0.00 0.02 0.00 65 1004.9
20181218072518 32 278 8.0 16.0 0.00 0.03 0.00 61 1004.8
20181218071754 32 294 7.0 16.0 0.00 0.03 0.00 61 1004.6
20181218070518 33 294 9.0 16.0 0.00 0.03 0.00 61 1004.3
20181218064519 33 301 9.0 18.0 0.00 0.04 0.00 64 1004.0
20181218062520 33 350 9.0 18.0 0.00 0.04 0.00 69 1003.6
20181218062222 33 277 6.0 18.0 0.00 0.04 0.00 69 1003.4
20181218060519 33 326 7.0 20.0 0.00 0.04 0.00 79 1003.3
20181218054519 35 300 8.0 12.0 0.00 0.06 0.00 66 1003.1
20181218052519 36 300 8.0 12.0 0.00 0.07 0.00 67 1002.6
20181218052223 36 302 4.0 12.0 0.00 0.07 0.00 66 1002.5
20181218050520 36 277 7.0 11.0 0.00 0.07 0.07 73 1002.6
20181218044519 36 300 4.0 11.0 0.00 0.08 0.08 75 1002.8
20181218042518 36 285 1.0 11.0 0.00 0.09 0.09 76 1002.9
20181218042221 37 292 6.0 11.0 0.00 0.09 0.09 76 1002.9
20181218040518 37 296 5.0 9.0 0.00 0.09 0.08 76 1003.0
20181218034520 37 238 0.0 9.0 0.00 0.10 0.09 75 1003.0
20181218032519 37 285 1.0 9.0 0.00 0.11 0.09 75 1003.0
20181218032222 37 281 7.0 9.0 0.00 0.11 0.09 75 1003.0
20181218030519 37 275 7.0 7.0 0.00 0.11 0.08 75 1002.8
20181218024519 37 299 6.0 9.0 0.00 0.13 0.09 76 1003.1
20181218022520 37 288 4.0 9.0 0.00 0.16 0.09 75 1003.1
20181218022223 37 284 0.0 9.0 0.00 0.16 0.09 75 1003.2
20181218020521 37 284 0.0 9.0 0.00 0.16 0.08 75 1003.3
20181218014520 37 305 1.0 10.0 0.00 0.18 0.09 74 1003.1
20181218012518 37 296 1.0 10.0 0.00 0.23 0.09 73 1003.3
20181218012222 37 302 6.0 10.0 0.00 0.23 0.09 73 1003.3
20181218010520 37 308 4.0 9.0 0.00 0.23 0.08 73 1003.2
20181218004521 38 290 0.0 9.0 0.00 0.27 0.09 71 1003.2
20181218002519 38 287 2.0 9.0 0.00 0.32 0.09 71 1003.3
20181218002223 38 285 1.0 9.0 0.00 0.32 0.09 71 1003.2
20181218000519 38 303 5.0 16.0 0.00 0.32 0.08 71 1003.0
20181217234521 39 319 4.0 14.0 0.00 0.38 0.09 70 1002.8
20181217232520 39 306 6.0 14.0 0.00 0.44 0.09 69 1002.8
20181217232223 39 316 9.0 14.0 0.00 0.44 0.09 69 1002.7
20181217230520 39 300 5.0 10.0 0.00 0.44 0.08 69 1002.5
20181217224519 39 314 5.0 10.0 0.00 0.50 0.08 70 1002.3
20181217222519 39 305 3.0 16.0 0.00 0.56 0.09 70 1002.2
20181217222223 40 311 3.0 16.0 0.00 0.56 0.09 70 1002.2
20181217220520 40 301 5.0 16.0 0.00 0.56 0.09 70 1002.1